Weather in Dubovets

Russia / Lipetsk Oblast     52°16′33″N   38°11′10″E
temp.,
°C
wind,
m/s
gust,
m/s
humid.,
%
clouds,
%
prec.,
mm/h
press.,
hPa
HPBL,
m
12 may, wed
wed1200:00+6ese49890 0.0 1025183
03:00+6ene3893100 0.0 1025176
06:00+6ene4108793 0.0 1024287
09:00+11ene5767100 0.0 1023597
12:00+13ne6666100 0.1 10211317
15:00+13ene446399 0.2 10191118
18:00+13e46685 0.2 10181093
21:00+9e4108628 0.3 1018205
13 may, thu
thu1300:00+10e51285100 0.0 1017385
03:00+9ese51291100 0.1 1017309
06:00+9ese3894100 0.3 1017310
09:00+12se4883100 0.8 1016594
12:00+10sse2495100 3.1 1016173
15:00+14sse36817 6.2 1016430
18:00+15s248454 0.9 1015384
21:00+12se229019 1.3 101611
14 may, fri
fri1400:00+11se229097 0.0 101620
03:00+11ese3492100 0.0 101660
06:00+12ese499487 0.8 1015200
09:00+17se6107897 0.8 1015461
12:00+22se79645 0.0 10141028
15:00+24sse71162100 0.0 10121628
18:00+20sse61172100 0.3 1012314
21:00+18sse51379100 0.3 1012283
15 may, sat
sat1500:00+16ese128898 0.6 101114
03:00+15nne489693 7.1 1011171
06:00+15e489699 2.1 1010203
09:00+17se4795100 4.8 1010195
12:00+22s78700 0.4 1011984
15:00+23s6862100 1.3 10111418
18:00+21sw58705 0.4 1011525
21:00+16w33860 0.6 101230
16 may, sun
sun1600:00+14sw22870 0.0 101319
03:00+13sw2290100 0.0 101410
06:00+14wsw1189100 0.0 101420
09:00+19sw117159 0.0 1014408
12:00+22wsw1156100 0.0 10141281
15:00+23nne11495 0.0 10131670
18:00+22ne2363100 0.0 101398
21:00+17ne467470 0.0 101389